| time (UTC) | temp C | wind direction | speed KPH | gust KPH | rain 1hr cm | rain 24hr cm | rain mn cm | humidity % | barometer mb |
| 20260502130210 | 24 | 84 | 6.4 | 0.0 | 0.00 | 0.00 | 0.00 | 28 | 1024.7 |
| 20260502123210 | 23 | 106 | 11.3 | 0.0 | 0.00 | 0.00 | 0.00 | 29 | 1025.2 |
| 20260502120210 | 23 | 133 | 11.3 | 0.0 | 0.00 | 0.00 | 0.00 | 29 | 1025.7 |
| 20260502113211 | 23 | 139 | 8.0 | 0.0 | 0.00 | 0.00 | 0.00 | 29 | 1026.1 |
| 20260502110210 | 22 | 183 | 9.7 | 0.0 | 0.00 | 0.00 | 0.00 | 32 | 1026.5 |
| 20260502103210 | 22 | 109 | 11.3 | 0.0 | 0.00 | 0.00 | 0.00 | 34 | 1026.8 |
| 20260502100210 | 21 | 190 | 8.0 | 0.0 | 0.00 | 0.00 | 0.00 | 42 | 1027.2 |
| 20260502090210 | 17 | 175 | 8.0 | 0.0 | 0.00 | 0.00 | 0.00 | 49 | 1028.0 |
| 20260502070213 | 10 | 140 | 6.4 | 0.0 | 0.00 | 0.00 | 0.00 | 69 | 1028.8 |
| 20260502063212 | 8 | 209 | 1.6 | 0.0 | 0.00 | 0.00 | 0.00 | 78 | 1028.9 |
| 20260502060210 | 6 | 209 | 1.6 | 0.0 | 0.00 | 0.00 | 0.00 | 84 | 1028.9 |
| 20260502053210 | 4 | 234 | 4.8 | 0.0 | 0.00 | 0.00 | 0.00 | 86 | 1029.1 |
| 20260502050211 | 3 | 209 | 0.0 | 0.0 | 0.00 | 0.00 | 0.00 | 88 | 1028.9 |
| 20260502043211 | 2 | 209 | 0.0 | 0.0 | 0.00 | 0.00 | 0.00 | 87 | 1028.6 |
| 20260502040213 | 3 | 209 | 0.0 | 0.0 | 0.00 | 0.00 | 0.00 | 86 | 1028.6 |
| 20260502033211 | 3 | 209 | 0.0 | 0.0 | 0.00 | 0.00 | 0.00 | 84 | 1028.6 |
| 20260502030211 | 4 | 209 | 0.0 | 0.0 | 0.00 | 0.00 | 0.00 | 82 | 1028.5 |
| 20260502023214 | 4 | 209 | 0.0 | 0.0 | 0.00 | 0.00 | 0.00 | 80 | 1028.6 |
| 20260502020212 | 6 | 239 | 4.8 | 0.0 | 0.00 | 0.00 | 0.00 | 76 | 1028.7 |
| 20260502013211 | 7 | 80 | 3.2 | 0.0 | 0.00 | 0.00 | 0.00 | 74 | 1028.5 |
| 20260502010211 | 7 | 80 | 1.6 | 0.0 | 0.00 | 0.00 | 0.00 | 72 | 1028.9 |
| 20260502003209 | 7 | 68 | 4.8 | 0.0 | 0.00 | 0.00 | 0.00 | 71 | 1029.1 |
| 20260502000211 | 8 | 74 | 1.6 | 0.0 | 0.00 | 0.00 | 0.00 | 69 | 1029.4 |
| 20260501233210 | 8 | 74 | 4.8 | 0.0 | 0.00 | 0.00 | 0.00 | 68 | 1029.5 |
| 20260501230210 | 9 | 73 | 4.8 | 0.0 | 0.00 | 0.00 | 0.00 | 66 | 1029.6 |
| 20260501223210 | 9 | 82 | 3.2 | 0.0 | 0.00 | 0.00 | 0.00 | 67 | 1029.8 |
| 20260501213210 | 11 | 82 | 0.0 | 0.0 | 0.00 | 0.00 | 0.00 | 62 | 1029.7 |
| 20260501210210 | 12 | 82 | 1.6 | 0.0 | 0.00 | 0.00 | 0.00 | 58 | 1029.6 |
| 20260501203209 | 12 | 82 | 0.0 | 0.0 | 0.00 | 0.00 | 0.00 | 55 | 1029.7 |
| 20260501200211 | 14 | 82 | 0.0 | 0.0 | 0.00 | 0.00 | 0.00 | 50 | 1029.6 |
| 20260501193209 | 15 | 82 | 0.0 | 0.0 | 0.00 | 0.00 | 0.00 | 46 | 1029.4 |
| 20260501190210 | 17 | 52 | 6.4 | 0.0 | 0.00 | 0.00 | 0.00 | 39 | 1029.1 |
| 20260501183210 | 18 | 116 | 14.5 | 0.0 | 0.00 | 0.00 | 0.00 | 36 | 1028.9 |
| 20260501180210 | 19 | 91 | 14.5 | 0.0 | 0.00 | 0.00 | 0.00 | 34 | 1028.6 |
| 20260501173211 | 20 | 101 | 9.7 | 0.0 | 0.00 | 0.00 | 0.00 | 32 | 1028.4 |
| 20260501170210 | 21 | 101 | 16.1 | 0.0 | 0.00 | 0.00 | 0.00 | 29 | 1028.6 |
| 20260501163209 | 21 | 90 | 19.3 | 0.0 | 0.00 | 0.00 | 0.00 | 29 | 1028.8 |
| 20260501160210 | 21 | 88 | 22.5 | 0.0 | 0.00 | 0.00 | 0.00 | 28 | 1028.9 |
| 20260501153210 | 21 | 63 | 16.1 | 0.0 | 0.00 | 0.00 | 0.00 | 27 | 1029.1 |
| 20260501150210 | 21 | 91 | 16.1 | 0.0 | 0.00 | 0.00 | 0.00 | 27 | 1029.4 |